Weather History for Andrews, NC

Change the Weather History Date:

Monday, April 21, 2014

  Actual Average (KTYS) Record (KTYS)
Temperature  
Mean Temperature 58 °F 60 °F  
Max Temperature 77 °F 72 °F 88 °F (1946)
Min Temperature 38 °F 49 °F 27 °F (1983)
Degree Days  
Heating Degree Days 8 6  
Month to date heating degree days 176  
Since 1 July heating degree days 3533  
Cooling Degree Days 0 1  
Month to date cooling degree days 19  
Year to date cooling degree days 24  
Growing Degree Days 8 (Base 50)    
Moisture  
Dew Point 43 °F    
Average Humidity 65    
Maximum Humidity 99    
Minimum Humidity 29    
Precipitation  
Precipitation 0.00 in 0.13 in 3.61 in (2006)
Month to date precipitation 2.76  
Year to date precipitation 15.68  
Snow  
Snow 0.00 in 0.00 in - ()
Month to date snowfall 0.5  
Since 1 July snowfall 6.5  
Snow Depth -    
Sea Level Pressure  
Sea Level Pressure 30.11 in    
Wind  
Wind Speed 1 mph (WSW)    
Max Wind Speed 13 mph    
Max Gust Speed 17 mph    
Visibility 10 miles    
Events      
T = Trace of Precipitation, MM = Missing Value Source: NWS Daily Summary

Daily Weather History Graph

Daily Weather History Graph

Search for Another Location

Airport:

Trip Planner

Search our weather history database for the weather conditions in past years. The results will help you decide how hot, cold, wet, or windy it might be!

Date:

Astronomy

Apr. 21, 2014 Rise Set
Actual Time 6:55 AM EDT 8:13 PM EDT
Civil Twilight 6:29 AM EDT 8:39 PM EDT
Nautical Twilight 5:57 AM EDT 9:11 PM EDT
Astronomical Twilight 5:24 AM EDT 9:44 PM EDT
Moon 1:39 AM EDT 12:24 PM EDT
Length of Visible Light 14h 10m
Length of Day
13h 17m
Waning Gibbous, 58% of the Moon is Illuminated
Apr 21
Waning Gibbous
Apr 22
Last Quarter
Apr 29
New
May 6
First Quarter
May 14
Full

Hourly Weather History & Observations

Time (EDT) Temp. Dew Point Humidity Pressure Visibility Wind Dir Wind Speed Gust Speed Precip Events Conditions
12:15 AM 49.5 °F 43.3 °F 79% 30.20 in 10.0 mi Calm Calm - N/A   Clear
12:35 AM 47.8 °F 43.9 °F 86% 30.20 in 10.0 mi Calm Calm - N/A   Clear
12:55 AM 46.4 °F 43.2 °F 88% 30.20 in 10.0 mi Calm Calm - N/A   Clear
1:15 AM 47.1 °F 43.2 °F 86% 30.20 in 10.0 mi Calm Calm - N/A   Clear
1:35 AM 46.0 °F 42.6 °F 88% 30.20 in 10.0 mi Calm Calm - N/A   Clear
1:55 AM 45.7 °F 43.5 °F 92% 30.20 in 10.0 mi Calm Calm - N/A   Clear
2:15 AM 45.5 °F 43.0 °F 91% 30.20 in 10.0 mi Calm Calm - N/A   Clear
2:35 AM 44.4 °F 40.8 °F 87% 30.19 in 10.0 mi Calm Calm - N/A   Clear
2:55 AM 43.7 °F 42.1 °F 94% 30.19 in 10.0 mi Calm Calm - N/A   Clear
3:15 AM 44.2 °F 41.0 °F 88% 30.18 in 10.0 mi Calm Calm - N/A   Clear
3:35 AM 43.7 °F 42.1 °F 94% 30.18 in 10.0 mi Calm Calm - N/A   Clear
3:55 AM 42.8 °F 40.3 °F 91% 30.18 in 10.0 mi Calm Calm - N/A   Clear
4:15 AM 42.6 °F 40.8 °F 93% 30.18 in 10.0 mi Calm Calm - N/A   Clear
4:35 AM 41.0 °F 38.8 °F 92% 30.18 in 10.0 mi Calm Calm - N/A   Clear
4:55 AM 40.5 °F 39.9 °F 98% 30.18 in 10.0 mi Calm Calm - N/A   Clear
5:15 AM 40.5 °F 38.7 °F 93% 30.18 in 10.0 mi Calm Calm - N/A   Clear
5:35 AM 40.1 °F 38.7 °F 95% 30.18 in 10.0 mi Calm Calm - N/A   Clear
5:55 AM 39.4 °F 39.0 °F 99% 30.19 in 5.0 mi Calm Calm - N/A   Clear
6:15 AM 38.7 °F 37.0 °F 94% 30.19 in 10.0 mi Calm Calm - N/A   Clear
6:35 AM 39.4 °F 39.0 °F 99% 30.19 in 7.0 mi Calm Calm - N/A   Clear
6:55 AM 39.4 °F 38.7 °F 97% 30.19 in 10.0 mi Calm Calm - N/A   Clear
7:15 AM 38.1 °F 36.3 °F 93% 30.20 in 10.0 mi Calm Calm - N/A   Clear
7:35 AM 39.4 °F 37.6 °F 93% 30.20 in 10.0 mi Calm Calm - N/A   Clear
7:55 AM 41.2 °F 39.4 °F 93% 30.20 in 10.0 mi Calm Calm - N/A   Clear
8:15 AM 43.0 °F 40.6 °F 91% 30.20 in 10.0 mi Calm Calm - N/A   Clear
8:35 AM 44.4 °F 41.0 °F 88% 30.20 in 10.0 mi Calm Calm - N/A   Clear
8:55 AM 46.8 °F 42.1 °F 84% 30.20 in 10.0 mi Calm Calm - N/A   Clear
9:15 AM 49.8 °F 42.8 °F 77% 30.20 in 10.0 mi Calm Calm - N/A   Clear
9:35 AM 52.5 °F 43.3 °F 71% 30.20 in 10.0 mi Calm Calm - N/A   Clear
9:55 AM 55.9 °F 44.1 °F 64% 30.20 in 10.0 mi Calm Calm - N/A   Clear
10:15 AM 58.5 °F 41.2 °F 53% 30.19 in 10.0 mi Calm Calm - N/A   Clear
10:35 AM 60.8 °F 39.2 °F 45% 30.18 in 10.0 mi Calm Calm - N/A   Clear
10:55 AM 63.0 °F 41.2 °F 45% 30.18 in 10.0 mi Calm Calm - N/A   Clear
11:15 AM 65.1 °F 38.7 °F 38% 30.17 in 10.0 mi Calm Calm - N/A   Clear
11:35 AM 66.2 °F 38.3 °F 36% 30.16 in 10.0 mi Calm Calm - N/A   Clear
11:55 AM 68.4 °F 39.9 °F 35% 30.15 in 10.0 mi West 3.5 mph - N/A   Clear
12:15 PM 69.8 °F 41.2 °F 35% 30.14 in 10.0 mi West 4.6 mph - N/A   Clear
12:35 PM - - N/A% - - North - - N/A   Unknown
12:55 PM - - N/A% - - North - - N/A   Unknown
1:15 PM 73.2 °F 41.7 °F 32% 30.10 in 10.0 mi Calm Calm - N/A   Clear
1:35 PM 74.1 °F 42.8 °F 32% 30.08 in 10.0 mi SSE 4.6 mph - N/A   Clear
1:55 PM 75.2 °F 43.7 °F 32% - 10.0 mi West 6.9 mph - N/A   Clear
2:15 PM 75.4 °F 43.2 °F 32% 30.06 in 10.0 mi West 4.6 mph - N/A   Clear
2:35 PM 75.6 °F 41.5 °F 29% 30.05 in 10.0 mi Calm Calm - N/A   Clear
2:55 PM 76.3 °F 42.8 °F 30% 30.04 in 10.0 mi South 4.6 mph - N/A   Clear
3:15 PM 76.8 °F 43.2 °F 30% 30.03 in 10.0 mi Calm Calm - N/A   Clear
3:35 PM 76.8 °F 44.8 °F 32% 30.02 in 10.0 mi WSW 6.9 mph - N/A   Clear
3:55 PM 76.5 °F 44.8 °F 32% 30.01 in 10.0 mi WSW 8.1 mph - N/A   Clear
4:15 PM 77.2 °F 45.7 °F 33% 30.00 in 10.0 mi SW 12.7 mph - N/A   Clear
4:35 PM 77.4 °F 45.1 °F 32% 30.00 in 10.0 mi SW 10.4 mph - N/A   Clear
4:55 PM 77.0 °F 45.3 °F 32% 29.99 in 10.0 mi West 9.2 mph - N/A   Clear
5:15 PM 77.7 °F 46.8 °F 33% 29.99 in 10.0 mi WSW 11.5 mph 17.3 mph N/A   Clear
6:15 PM 73.4 °F 45.1 °F 36% 29.99 in 10.0 mi WSW 10.4 mph - N/A   Clear
6:35 PM 73.8 °F 46.4 °F 38% 29.98 in 10.0 mi West 10.4 mph - N/A   Clear
6:55 PM 72.9 °F 45.7 °F 38% 29.99 in 10.0 mi West 11.5 mph - N/A   Clear
7:15 PM 70.9 °F 45.0 °F 39% 29.99 in 10.0 mi West 8.1 mph - N/A   Clear
7:35 PM 71.6 °F 44.1 °F 37% 29.99 in 10.0 mi West 4.6 mph - N/A   Clear
7:55 PM 70.7 °F 43.3 °F 37% 29.99 in 10.0 mi West 6.9 mph - N/A   Clear
8:15 PM 66.6 °F 45.5 °F 47% 29.99 in 10.0 mi Calm Calm - N/A   Clear
8:35 PM 61.9 °F 46.8 °F 58% 29.99 in 10.0 mi Calm Calm - N/A   Clear
8:55 PM 60.6 °F 46.4 °F 59% 29.99 in 10.0 mi Calm Calm - N/A   Clear
9:15 PM 57.0 °F 48.0 °F 72% 29.99 in 10.0 mi Calm Calm - N/A   Clear
9:35 PM 58.8 °F 46.8 °F 64% 29.99 in 10.0 mi Calm Calm - N/A   Clear
9:55 PM 59.0 °F 47.1 °F 65% 30.00 in 10.0 mi Calm Calm - N/A   Clear
10:15 PM 57.4 °F 46.9 °F 68% 30.00 in 10.0 mi Calm Calm - N/A   Clear
10:35 PM 56.7 °F 47.3 °F 71% 30.00 in 10.0 mi Calm Calm - N/A   Clear
10:55 PM 54.1 °F 46.8 °F 76% 30.00 in 10.0 mi Calm Calm - N/A   Clear
11:15 PM 54.9 °F 45.7 °F 71% 29.99 in 10.0 mi Calm Calm - N/A   Scattered Clouds
11:35 PM 53.1 °F 45.9 °F 77% 29.99 in 10.0 mi Calm Calm - N/A   Clear
11:55 PM 52.0 °F 46.2 °F 81% 29.99 in 10.0 mi Calm Calm - N/A   Clear